Weather History for Millington, TN

Change the Weather History Date:

Saturday, September 15, 2012

  Actual Average Record
Temperature  
Mean Temperature 73 °F -  
Max Temperature 80 °F 83 °F 96 °F (2010)
Min Temperature 66 °F 63 °F 51 °F (2006)
Cooling Degree Days 8    
Growing Degree Days 23 (Base 50)    
Moisture  
Dew Point 67 °F    
Average Humidity 86    
Maximum Humidity 94    
Minimum Humidity 70    
Precipitation  
Precipitation 0.00 in - - ()
Sea Level Pressure  
Sea Level Pressure 30.17 in    
Wind  
Wind Speed 3 mph (NNE)    
Max Wind Speed 8 mph    
Max Gust Speed -    
Visibility 9 miles    
Events      
Averages and records for this station are not official NWS values.
T = Trace of Precipitation, MM = Missing Value Source: NWS Daily Summary

Daily Weather History Graph

Daily Weather History Graph

Search for Another Location

Airport:

Trip Planner

Search our weather history database for the weather conditions in past years. The results will help you decide how hot, cold, wet, or windy it might be!

Date:

Astronomy

Sep. 15, 2012 Rise Set
Actual Time 6:42 AM CDT 7:05 PM CDT
Civil Twilight 6:17 AM CDT 7:31 PM CDT
Nautical Twilight 5:47 AM CDT 8:01 PM CDT
Astronomical Twilight 5:16 AM CDT 8:31 PM CDT
Moon 6:12 AM CDT (9/15) 6:38 PM CDT (9/15)
Length of Visible Light 13h 14m
Length of Day
12h 23m
Waning Crescent, 0% of the Moon is Illuminated
Sep 15
Waning Crescent
Sep 15
New
Sep 22
First Quarter
Sep 29
Full
Oct 8
Last Quarter

Hourly Weather History & Observations

Time (CDT) Temp. Heat Index Dew Point Humidity Pressure Visibility Wind Dir Wind Speed Gust Speed Precip Events Conditions
12:55 AM 68.0 °F - 66.2 °F 94% 30.22 in 10.0 mi NE 3.5 mph - N/A   Overcast
1:55 AM 68.0 °F - 64.4 °F 88% 30.21 in 10.0 mi ENE 4.6 mph - N/A   Overcast
2:15 AM 68.0 °F - 64.4 °F 88% 30.21 in 10.0 mi Variable 4.6 mph - N/A   Clear
2:35 AM 68.0 °F - 64.4 °F 88% 30.20 in 10.0 mi ENE 4.6 mph - N/A   Clear
2:55 AM 68.0 °F - 64.4 °F 88% 30.20 in 10.0 mi ENE 5.8 mph - N/A   Clear
3:15 AM 68.0 °F - 64.4 °F 88% 30.19 in 10.0 mi Calm Calm - N/A   Clear
3:35 AM 68.0 °F - 64.4 °F 88% 30.19 in 10.0 mi Calm Calm - N/A   Clear
3:55 AM 66.2 °F - 64.4 °F 94% 30.19 in 10.0 mi Variable 3.5 mph - N/A   Clear
4:55 AM 66.2 °F - 64.4 °F 94% 30.19 in 10.0 mi Variable 3.5 mph - N/A   Clear
5:55 AM 66.2 °F - 64.4 °F 94% 30.19 in 9.0 mi Calm Calm - N/A   Mostly Cloudy
6:55 AM 66.2 °F - 64.4 °F 94% 30.21 in 5.0 mi ENE 3.5 mph - N/A   Overcast
7:55 AM 66.2 °F - 64.4 °F 94% 30.21 in 5.0 mi Calm Calm - N/A   Overcast
8:55 AM 69.8 °F - 66.2 °F 88% 30.21 in 6.0 mi Calm Calm - N/A   Overcast
9:55 AM 71.6 °F - 66.2 °F 83% 30.21 in 7.0 mi Variable 3.5 mph - N/A   Mostly Cloudy
10:55 AM 73.4 °F - 66.2 °F 78% 30.20 in 10.0 mi NNE 4.6 mph - N/A   Mostly Cloudy
11:55 AM 75.2 °F - 68.0 °F 78% 30.19 in 10.0 mi Variable 3.5 mph - N/A   Mostly Cloudy
12:55 PM 80.6 °F 83.9 °F 69.8 °F 70% 30.17 in 7.0 mi Calm Calm - N/A   Mostly Cloudy
1:55 PM 80.6 °F 83.9 °F 69.8 °F 70% 30.15 in 7.0 mi NW 5.8 mph - N/A   Mostly Cloudy
2:55 PM 78.8 °F - 69.8 °F 74% 30.14 in 10.0 mi NNW 8.1 mph - N/A   Mostly Cloudy
3:55 PM 77.0 °F - 69.8 °F 78% 30.13 in 10.0 mi NNW 5.8 mph - N/A   Clear
4:55 PM 77.0 °F - 69.8 °F 78% 30.13 in 10.0 mi NNW 6.9 mph - N/A   Overcast
5:55 PM 75.2 °F - 69.8 °F 83% 30.13 in 10.0 mi North 5.8 mph - N/A   Overcast
6:55 PM 73.4 °F - 69.8 °F 88% 30.12 in 10.0 mi NNW 4.6 mph - N/A   Overcast
7:55 PM 71.6 °F - 68.0 °F 88% 30.12 in 10.0 mi North 4.6 mph - N/A   Mostly Cloudy
8:55 PM 71.6 °F - 68.0 °F 88% 30.12 in 10.0 mi Variable 3.5 mph - N/A   Overcast
9:55 PM 71.6 °F - 68.0 °F 88% 30.12 in 10.0 mi Calm Calm - N/A   Overcast
10:55 PM 69.8 °F - 68.0 °F 94% 30.11 in 10.0 mi Calm Calm - N/A   Overcast
11:55 PM 69.8 °F - 66.2 °F 88% 30.10 in 10.0 mi Calm Calm - N/A   Overcast